Flag for Romania Weather past 2 weeks in Sibiu, Romania

Now
66 °F

Clear.


Feels Like: 66 °F
Forecast: 56 / 76 °F
Wind: 10 mph from South

Location: Sibiu Airport

Current Time: May 23, 2015 at 3:05:45 AM

Latest Report: May 23, 2015 at 2:00 AM


Visibility: 10 mi

Pressure: 29.98 "Hg

Humidity: 52%

Dew point: 48 °F

Location of SibiuLocation

Historic Weather in Sibiu — Graph

°F

Sibiu temperature yesterday

Maximum temperature yesterday: 77 °F (at 4:30 PM)
Minimum temperature yesterday: 55 °F (at 3:00 AM)
Average temperature yesterday: 65 °F

Past Weeks' High & Low Weather Summary

 TemperatureHumidityPressure
High81 °F (May 21, 2:00 PM)100% (May 8, 3:00 AM)30.36 "Hg (May 8, 3:00 AM)
Low39 °F (May 12, 6:00 AM)30% (May 21, 1:00 PM)29.74 "Hg (May 14, 6:00 PM)
Average61 °F70%30.04 "Hg
* Reported May 8 2:00 AM — May 23 2:00 AM, Sibiu, Weather by CustomWeather, © 2015

Note: Actual official high and low records may vary slightly from our data, if they occured in-between our weather recording intervals... More about our weather records

Advertising

Sibiu weather history for previous 24 hours

 ConditionsComfort  
Time TempWeatherWind HumidityBarometerVisibility
2:00 AM
Sat, May 23
66 °FClear.10 mph52%29.98 "Hg10 mi
1:00 AM68 °FClear.8 mph49%29.98 "Hg10 mi
12:00 AM64 °FClear.2 mph52%29.98 "Hg10 mi
11:00 PM
Fri, May 22
64 °FPassing clouds.2 mph64%29.98 "HgN/A
9:00 PM68 °FSunny.5 mph53%29.98 "Hg10 mi
8:30 PM70 °FPassing clouds.3 mph57%29.98 "HgN/A
8:00 PM72 °FSunny.7 mph50%29.98 "Hg10 mi
6:30 PM75 °FSunny.12 mph44%29.95 "Hg10 mi
6:00 PM77 °FSunny.13 mph42%29.95 "Hg10 mi
5:30 PM77 °FSunny.13 mph44%29.98 "Hg10 mi
5:00 PM77 °FSunny.13 mph42%29.98 "Hg10 mi
4:30 PM77 °FSunny.13 mph47%29.98 "Hg10 mi
4:00 PM75 °FSunny.12 mph47%29.98 "Hg10 mi
3:30 PM75 °FSunny.14 mph47%29.98 "Hg10 mi
2:30 PM73 °FSunny.13 mph47%30.01 "Hg10 mi
2:00 PM73 °FSunny.10 mph50%30.01 "Hg10 mi
1:30 PM70 °FSunny.3 mph64%30.04 "Hg10 mi
1:00 PM70 °FSunny.1 mph64%30.04 "Hg10 mi
12:30 PM68 °FSunny.1 mph69%30.04 "Hg10 mi
12:00 PM66 °FSunny.2 mph68%30.04 "Hg10 mi
11:30 AM64 °FSunny.No wind73%30.07 "Hg10 mi
11:00 AM63 °FSunny.2 mph77%30.07 "Hg10 mi
10:30 AM63 °FSunny.2 mph73%30.04 "Hg10 mi
10:00 AM63 °FSunny.2 mph77%30.04 "Hg10 mi
9:30 AM61 °FSunny.2 mph88%30.04 "Hg10 mi
9:00 AM61 °FSunny.2 mph83%30.04 "Hg10 mi
8:30 AM61 °FSunny.3 mph77%30.04 "Hg10 mi
8:00 AM63 °FSunny.1 mph73%30.04 "Hg10 mi
7:30 AM61 °FSunny.2 mph77%30.04 "Hg10 mi
7:00 AM59 °FSunny.2 mph82%30.04 "Hg10 mi
6:30 AM55 °FClear.3 mph88%30.04 "Hg10 mi
6:00 AM55 °FClear.1 mph82%30.04 "Hg10 mi
5:30 AM55 °FCool.2 mph82%30.01 "HgN/A
5:00 AM55 °FClear.No wind82%30.01 "Hg10 mi
4:00 AM55 °FPassing clouds.3 mph88%30.04 "HgN/A
3:00 AM55 °FClear.2 mph88%30.01 "Hg10 mi
Weather by CustomWeather, © 2015

See weather overviewHow to use our weather pages